STARLINK-30899, 58420

Orbit data source: Space-Track

STARLINK-30899, 58420 is a payload satellite owned by SpaceX/Seattle (US) in LEO that was launched on Wed, 22 Nov 2023 UTC via an FALCON 9 launch vehicle from the Air Force Eastern Test Range (AFETR). Payload-class satellites include a variety of spacecraft equipped with specific instruments for various scientific and technological missions. These include communications satellites like Starlink; space stations such as the ISS; scientific satellites like the Hubble; Earth observation satellites from companies like Planet Labs, Umbra, and HawkEye 360; GPS; miniature CubeSats for education and research; and military/defense satellites.

Loading next visibility...
Identifier
58420, 2023-180U
Orbit
LEO
Country
Flag of USUS
Related business
Manufacturer
SpaceX/Seattle
Mission
Operational Commercial Communications
Bus & Motor
STARLINK V2M, Unknown motor
Mass
730 kg wet, ~700 kg dry
Launch date (UTC)
2023-11-22 (3 years ago)
Launch vehicle
FALCON 9
Launch site
Air Force Eastern Test Range (AFETR)
Object type
Payload
Rocket body
Debris
Shape & HBR
Box + 2 Pan, 17.7 m
Radar Cross Section
33.884 m², Large (>1 m²)

Expand to show TLE details & history
Last TLE update: 2 days ago

TLE from 2 days ago
0 STARLINK-30899
1 58420U 23180U   26171.04561208 -.00001367  00000-0 -40182-4 0  9994
2 58420  43.0034 194.1857 0001388 266.0369  94.0324 15.27561472143169
Epoch: 2026-06-20T01:05Z
TLE epoch observation values (Epoch: 2026-06-20T01:05:40.883Z)
Latitude
-0.00003°
Longitude
-90.50055°
Altitude
482.947 km
Speed
7.626 km/s
True Right ascension
12h 56m 44s
True Declination
0° 00' 00"
Sunlit
Object was in daylight at epoch
Visualization orbit readout
Latitude
Unknown
Longitude
Unknown
Altitude
Unknown
Speed
Unknown
Apparent Right ascension
Unknown
Apparent Declination
Unknown
Sunlit
N/A
Visualization observer readout
Local Sidereal Time
21:32:47
Azimuth
Unknown
Elevation
Unknown
Doppler factor
Unknown
Orbital elements
Apogee altitude
486.002 km
Perigee altitude
484.097 km
Semi-major axis
6,863.186 km
Eccentricity
0.00014
Inclination
43.0034°
RAAN
194.1857°
Arg. of periapsis
266.0369°
True anomaly
94.04827°
Mean anomaly
94.0324°
Eccentric anomaly
94.04033°
Mean motion
3.81728 °/min
Orbital period
94.31 mins
BSTAR
-0.000040182
Loading maneuver chart data...
Computing Atmospheric mass density...
Loading historical data...
Loading historical data...
Loading historical data...
Loading historical data...
Loading historical data...
Loading historical data...
Loading historical data...

Documentation

Showing up to 5 results
|